Oxford, CT

3:20 AM EST on November 19, 2019 (GMT -0500)
Waterbury-Oxford

Weather History for KOXC - October, 2019

Change the Weather History Date:

Wednesday, October 23, 2019

  Actual Average Record
Temperature  
Mean Temperature 58 °F -  
Max Temperature 63 °F 54 °F 73 °F (2007)
Min Temperature 46 °F 38 °F 19 °F (1997)
Degree Days  
Heating Degree Days 8    
Growing Degree Days 8 (Base 50)    
Moisture  
Dew Point 48 °F    
Average Humidity 77    
Maximum Humidity 100    
Minimum Humidity 35    
Precipitation  
Precipitation 0.19 in - - ()
Sea Level Pressure  
Sea Level Pressure 29.89 in    
Wind  
Wind Speed 6 mph ()    
Max Wind Speed 15 mph    
Max Gust Speed 24 mph    
Visibility 7.8 miles    
Events Rain    
Averages and records for this station are not official NWS values.
T = Trace of Precipitation, MM = Missing Value Source: Averaged Metar Reports

Daily Weather History Graph

Daily Weather History Graph

Search for Another Location

Airport or City:

Astronomy

Oct. 23, 2019 Rise Set
Actual Time 7:13 AM EDT 5:59 PM EDT
Civil Twilight 6:45 AM EDT 6:28 PM EDT
Nautical Twilight 6:12 AM EDT 7:00 PM EDT
Astronomical Twilight 5:40 AM EDT 7:32 PM EDT
Moon 1:23 AM EDT (10/23) 3:53 PM EDT (10/23)
Length of Visible Light 11h 43m
Length of Day
10h 46m
Waning Crescent, 27% of the Moon is Illuminated
Oct 23
Waning Crescent
Oct 27
New
Nov 4
First Quarter
Nov 12
Full
Nov 19
Last Quarter

Hourly Weather History & Observations

Time (EDT) Temp. Dew Point Humidity Pressure Visibility Wind Dir Wind Speed Gust Speed Precip Events Conditions
12:51 AM 55.9 °F 55.9 °F 100% 29.84 in 6.0 mi ESE 6.9 mph - 0.02 in Rain Light Rain
1:51 AM 57.9 °F 57.0 °F 97% 29.81 in 5.0 mi ESE 5.8 mph - 0.02 in Rain Light Rain
2:41 AM 57.2 °F 57.2 °F 100% 29.76 in 2.5 mi ENE 3.5 mph - 0.05 in Rain Light Rain
2:51 AM 57.0 °F 57.0 °F 100% 29.79 in 3.0 mi Calm Calm - 0.06 in Rain Light Rain
2:58 AM 57.2 °F 57.2 °F 100% 29.76 in 5.0 mi Calm Calm - 0.00 in Rain Light Rain
3:10 AM 57.2 °F 57.2 °F 100% 29.76 in 4.0 mi Calm Calm - 0.01 in Rain Light Rain
3:15 AM 57.2 °F 57.2 °F 100% 29.77 in 1.8 mi WNW 5.8 mph - 0.02 in Rain Light Rain
3:25 AM 55.4 °F 55.4 °F 100% 29.78 in 2.0 mi NW 6.9 mph 17.3 mph 0.05 in Rain Rain
3:51 AM 55.9 °F 55.0 °F 97% 29.80 in 4.0 mi NNW 9.2 mph - 0.09 in Rain Light Rain
4:16 AM 55.4 °F 55.4 °F 100% 29.77 in 5.0 mi NW 6.9 mph - 0.00 in Rain Light Rain
4:23 AM 55.4 °F 55.4 °F 100% 29.77 in 4.0 mi NNW 5.8 mph - 0.00 in   Overcast
4:51 AM 55.9 °F 55.0 °F 97% 29.81 in 10.0 mi NNW 5.8 mph - 0.00 in   Overcast
5:19 AM 55.4 °F 55.4 °F 100% 29.79 in 9.0 mi NNW 5.8 mph - N/A   Overcast
5:32 AM 55.4 °F 55.4 °F 100% 29.79 in 8.0 mi NNW 11.5 mph - N/A   Overcast
5:48 AM 55.4 °F 53.6 °F 94% 29.79 in 10.0 mi North 12.7 mph - N/A   Overcast
5:51 AM 55.0 °F 53.1 °F 93% 29.82 in 10.0 mi North 15.0 mph - N/A   Overcast
6:51 AM 52.0 °F 51.1 °F 97% 29.84 in 10.0 mi NW 4.6 mph - N/A   Clear
7:51 AM 52.0 °F 50.0 °F 93% 29.88 in 10.0 mi WNW 3.5 mph - N/A   Clear
8:51 AM 55.0 °F 48.9 °F 80% 29.90 in 10.0 mi NW 6.9 mph - N/A   Clear
9:51 AM 57.9 °F 48.0 °F 70% 29.93 in 10.0 mi WNW 9.2 mph - N/A   Clear
10:51 AM 59.0 °F 48.0 °F 67% 29.94 in 10.0 mi WNW 11.5 mph - N/A   Scattered Clouds
11:51 AM 60.1 °F 44.1 °F 55% 29.94 in 10.0 mi West 10.4 mph 16.1 mph N/A   Scattered Clouds
12:51 PM 61.0 °F 42.1 °F 50% 29.93 in 10.0 mi WNW 9.2 mph 17.3 mph N/A   Scattered Clouds
1:51 PM 62.1 °F 37.9 °F 41% 29.95 in 10.0 mi WNW 9.2 mph 21.9 mph N/A   Scattered Clouds
2:51 PM 62.1 °F 36.0 °F 38% 29.97 in 10.0 mi West 11.5 mph 24.2 mph N/A   Clear
3:51 PM 63.0 °F 35.1 °F 35% 29.97 in 10.0 mi West 13.8 mph 21.9 mph N/A   Clear
4:51 PM 61.0 °F 33.1 °F 35% 29.99 in 10.0 mi West 9.2 mph 16.1 mph N/A   Clear
5:51 PM 59.0 °F 33.1 °F 38% 30.03 in 10.0 mi West 4.6 mph - N/A   Clear
6:51 PM 57.0 °F 32.0 °F 39% 30.06 in 10.0 mi West 4.6 mph - N/A   Clear
7:51 PM 55.9 °F 33.1 °F 42% 30.11 in 10.0 mi West 5.8 mph - N/A   Clear
8:51 PM 53.1 °F 33.1 °F 47% 30.14 in 10.0 mi WSW 3.5 mph - N/A   Clear
11:51 PM 46.9 °F 35.1 °F 63% 30.19 in 10.0 mi Calm Calm - N/A   Clear